Terminal Aerodrome Forecast
Issued by NWS Twin Cities, MN

Home | Current Version | Previous Version | Graphics & Text | Print | Product List | Glossary On
Versions: 1 2 3 4 5 6 7 8 9 10 11 12 13 14 15 16 17 18 19 20 21 22 23 24 25 26 27 28 29 30 31 32 33 34
041
FTUS43 KMPX 050040 AAA
TAFMSP
TAF AMD
KMSP 050040Z 0501/0606 24007KT P6SM BKN019 OVC025
     FM050400 22006KT P6SM SCT025
     FM050800 15005KT 4SM BR FEW100
     FM051200 13006KT P6SM BKN150
     FM051500 14009KT P6SM OVC090
     FM051800 18013G22KT P6SM SCT035 OVC090
     FM060100 22009KT P6SM BKN025 OVC035=

USA.gov is the U.S. government's official web portal to all federal, state and local government web resources and services.